Le nostre stazioni meteo in Italia

Pubblicità
Il mio iltempo24.it
Capo Mele, Italia (16153): Temperatura & dewpoint: 14.01.2019 07:00:00 - 20.01.2019 07:00:00 (CET)Capo Mele, Italia (16153): velocità del vento: 14.01.2019 07:00:00 - 20.01.2019 07:00:00 (CET)Capo Mele, Italia (16153): direzione del vento: 14.01.2019 07:00:00 - 20.01.2019 07:00:00 (CET)Capo Mele, Italia (16153): reduced air pressure: 14.01.2019 07:00:00 - 20.01.2019 07:00:00 (CET)Capo Mele, Italia (16153): visibility: 14.01.2019 07:00:00 - 20.01.2019 07:00:00 (CET)Capo Mele, Italia (16153): ore di luce: 14.01.2019 07:00:00 - 20.01.2019 07:00:00 (CET)
Data & Tempo tt [°C] td [°C] ff [km/h] ff [kn] dd ppp [hPa] vv [km] sd [min]
20.01.2019 07:00:00 - - - - - - - -
20.01.2019 06:00:00 6,0 -3,4 5 3 N 1012,3 35 -
20.01.2019 05:00:00 6,2 -3,2 5 3 NNE 1012,5 35 -
20.01.2019 04:00:00 6,4 -3,0 8 4 NNE 1012,7 35 -
20.01.2019 03:00:00 7,0 -2,7 5 3 SSO 1012,6 35 -
20.01.2019 02:00:00 7,0 -3,0 5 3 NNE 1012,8 35 -
20.01.2019 01:00:00 7,0 -3,0 8 4 NNE 1012,8 35 -
20.01.2019 00:00:00 7,0 -2,7 9 5 NNE 1012,8 35 -
19.01.2019 23:00:00 7,0 -2,4 9 5 NNE 1012,8 35 -
19.01.2019 22:00:00 7,0 -2,2 8 4 NNE 1012,9 35 -
19.01.2019 21:00:00 6,8 -2,1 9 5 SSO 1012,8 35 -
19.01.2019 20:00:00 6,8 -2,1 4 2 SSO 1012,8 30 -
19.01.2019 19:00:00 6,6 -1,5 4 2 SSO 1012,7 30 -
19.01.2019 18:00:00 7,8 -1,4 4 2 SSO 1012,6 30 0
19.01.2019 17:00:00 9,6 -1,2 8 4 SSO 1012,4 30 18
19.01.2019 16:00:00 10,4 -1,3 8 4 SO 1012,4 30 18
19.01.2019 15:00:00 10,4 -0,7 9 5 OSO 1012,4 30 6
19.01.2019 14:00:00 9,8 -1,3 15 8 OSO 1012,5 30 0
19.01.2019 13:00:00 9,2 -1,5 9 5 OSO 1013,6 30 12
19.01.2019 12:00:00 8,2 -2,4 9 5 OSO 1013,9 30 12
19.01.2019 11:00:00 8,2 -4,0 9 5 O 1013,8 30 0
19.01.2019 10:00:00 8,2 -3,9 9 5 O 1012,8 30 0
19.01.2019 09:00:00 8,0 -5,4 15 8 ONO 1012,7 30 0
19.01.2019 08:00:00 7,8 -5,6 15 8 NNO 1012,2 30 0
19.01.2019 07:00:00 7,4 -6,0 18 10 NNO 1012,2 30 0
19.01.2019 06:00:00 7,6 -5,1 18 10 NNO 1012,9 30 -
19.01.2019 05:00:00 7,8 -6,7 15 8 N 1012,9 30 -
19.01.2019 04:00:00 8,8 -8,7 13 7 NO 1012,8 20 -
19.01.2019 03:00:00 8,8 -8,7 9 5 NO 1012,8 30 -
19.01.2019 02:00:00 8,8 -9,2 11 6 N 1012,8 30 -
19.01.2019 01:00:00 8,8 -9,2 15 8 NNO 1012,8 30 -
19.01.2019 00:00:00 8,6 -4,9 0 0 N 1012,7 30 -
18.01.2019 23:00:00 8,6 -9,3 0 0 N 1011,8 30 -
18.01.2019 22:00:00 8,6 -9,3 0 0 N 1011,8 30 -
18.01.2019 21:00:00 8,8 -9,6 9 5 N 1011,8 30 -
18.01.2019 20:00:00 8,8 -11,2 5 3 N 1011,7 35 -
18.01.2019 19:00:00 9,2 -11,4 5 3 NNE 1011,5 35 -
18.01.2019 18:00:00 9,8 -9,8 5 3 N 1011,4 25 6
18.01.2019 17:00:00 11,2 -5,7 5 3 NNE 1010,6 25 60
18.01.2019 16:00:00 13,2 -5,4 8 4 N 1010,2 20 60
18.01.2019 15:00:00 14,8 -6,1 5 3 N 1009,8 25 60
18.01.2019 14:00:00 14,8 -5,6 8 4 N 1009,8 25 60
18.01.2019 13:00:00 15,0 -6,0 8 4 NNE 1009,9 25 60
18.01.2019 12:00:00 14,6 -4,7 8 4 NNE 1010,2 25 60
18.01.2019 11:00:00 13,0 -5,1 9 5 NNE 1010,3 25 60
18.01.2019 10:00:00 12,2 -4,9 11 6 NNE 1009,9 25 60
18.01.2019 09:00:00 10,0 -7,2 15 8 NNE 1009,3 25 18
18.01.2019 08:00:00 9,0 -8,5 22 12 NNE 1008,5 35 -
18.01.2019 07:00:00 9,0 -8,1 15 8 NNE 1007,8 35 -
18.01.2019 06:00:00 9,0 -6,4 11 6 NNE 1007,5 20 -
18.01.2019 05:00:00 9,4 -4,9 11 6 NNE 1007,6 35 -
18.01.2019 04:00:00 9,4 -1,6 11 6 NNE 1008,3 30 -
18.01.2019 03:00:00 9,4 0,6 8 4 NNE 1008,5 25 -
18.01.2019 02:00:00 9,6 1,2 15 8 N 1008,6 25 -
18.01.2019 01:00:00 9,6 1,3 15 8 NNE 1009,0 25 -
18.01.2019 00:00:00 9,8 1,7 15 8 N 1009,4 25 -
17.01.2019 23:00:00 9,8 1,7 15 8 NNE 1009,4 25 -
17.01.2019 22:00:00 9,6 2,7 11 6 NNE 1009,3 30 -
17.01.2019 21:00:00 10,0 6,4 8 4 SO 1009,3 25 -
17.01.2019 20:00:00 10,0 6,2 0 0 N 1009,7 30 -
17.01.2019 19:00:00 10,0 7,1 15 8 O 1009,7 30 -
17.01.2019 18:00:00 10,0 7,4 28 15 O 1009,7 30 0
17.01.2019 17:00:00 10,2 7,1 18 10 O 1009,7 30 42
17.01.2019 16:00:00 11,0 7,3 18 10 O 1009,6 30 60
17.01.2019 15:00:00 11,8 7,7 34 18 O 1009,5 30 0
17.01.2019 14:00:00 11,0 8,0 28 15 SSO 1011,4 30 0
17.01.2019 13:00:00 10,8 7,5 28 15 SSO 1011,6 30 -
17.01.2019 12:00:00 10,6 6,5 28 15 S 1012,7 30 30
17.01.2019 11:00:00 10,0 4,6 28 15 OSO 1013,6 30 0
17.01.2019 10:00:00 10,2 3,9 24 13 SO 1013,6 30 0
17.01.2019 09:00:00 10,0 6,0 18 10 S 1013,6 30 0
17.01.2019 08:00:00 10,2 6,2 15 8 SSO 1013,6 30 -
17.01.2019 07:00:00 10,2 6,4 11 6 S 1013,7 20 -
17.01.2019 06:00:00 10,5 7,4 9 5 S 1014,3 20 -
17.01.2019 05:00:00 10,0 7,8 9 5 S 1014,8 20 -
17.01.2019 04:00:00 10,0 7,4 0 0 N 1015,6 20 -
17.01.2019 03:00:00 10,2 7,6 0 0 N 1016,6 15 -
17.01.2019 02:00:00 10,0 7,1 4 2 S 1016,9 15 -
17.01.2019 01:00:00 10,0 7,1 4 2 SSO 1017,7 15 -
17.01.2019 00:00:00 10,0 7,4 8 4 SSO 1018,0 15 -
16.01.2019 23:00:00 10,0 7,8 4 2 SSO 1018,0 10 -
16.01.2019 22:00:00 10,0 7,1 4 2 SSO 1018,2 15 -
16.01.2019 21:00:00 10,0 7,4 4 2 SSO 1018,0 15 -
16.01.2019 20:00:00 9,8 7,4 11 6 SSO 1018,0 25 -
16.01.2019 19:00:00 9,8 8,2 11 6 SSO 1018,0 25 -
16.01.2019 18:00:00 13,0 11,4 11 6 SSO 1018,4 25 -
16.01.2019 17:00:00 9,8 9,8 11 6 S 1018,7 20 0
16.01.2019 16:00:00 11,4 9,8 22 12 S 1018,3 12 0
16.01.2019 15:00:00 11,8 9,9 29 16 S 1017,9 20 6
16.01.2019 14:00:00 12,0 7,1 26 14 S 1018,4 25 0
16.01.2019 13:00:00 12,0 7,7 34 18 S 1018,9 20 12
16.01.2019 12:00:00 12,2 7,3 29 16 S 1019,5 25 24
16.01.2019 11:00:00 11,8 8,1 26 14 SSO 1019,7 25 12
16.01.2019 10:00:00 11,0 7,3 29 16 SSO 1019,6 25 0
16.01.2019 09:00:00 10,0 6,4 29 16 OSO 1019,6 20 0
16.01.2019 08:00:00 11,0 8,0 22 12 O 1019,4 30 -
16.01.2019 07:00:00 10,4 6,7 29 16 O 1018,6 30 -
16.01.2019 06:00:00 10,4 7,8 34 18 NO 1018,8 30 -
16.01.2019 05:00:00 10,6 8,4 34 18 ONO 1019,5 30 -
16.01.2019 04:00:00 10,4 8,2 28 15 NO 1019,4 30 -
16.01.2019 03:00:00 10,0 7,6 22 12 NNO 1019,2 30 -
16.01.2019 02:00:00 10,0 6,0 15 8 NNO 1019,6 30 -
16.01.2019 01:00:00 10,0 5,4 0 0 N 1019,7 30 -
16.01.2019 00:00:00 10,0 5,2 0 0 N 1019,7 30 -
15.01.2019 23:00:00 10,4 5,8 0 0 N 1019,7 30 -
15.01.2019 22:00:00 10,6 6,2 0 0 N 1019,4 30 -
15.01.2019 21:00:00 11,0 6,7 0 0 N 1018,7 30 -
15.01.2019 20:00:00 11,2 6,1 8 4 SSE 1018,5 40 -
15.01.2019 19:00:00 11,8 6,1 9 5 SSE 1017,6 40 -
15.01.2019 18:00:00 12,0 4,7 22 12 S 1017,2 40 12
15.01.2019 17:00:00 12,2 5,4 28 15 SSO 1017,1 40 60
15.01.2019 16:00:00 13,8 4,4 22 12 OSO 1017,0 40 60
15.01.2019 15:00:00 13,5 4,4 18 10 OSO 1017,1 40 60
15.01.2019 14:00:00 15,0 5,2 8 4 SO 1017,2 40 60
15.01.2019 13:00:00 15,2 0,6 4 2 SO 1017,7 40 60
15.01.2019 12:00:00 15,8 -0,4 5 3 N 1017,9 40 60
15.01.2019 11:00:00 15,0 -3,4 4 2 N 1017,7 20 60
15.01.2019 10:00:00 15,0 -3,8 5 3 SO 1016,6 40 60
15.01.2019 09:00:00 13,2 -4,0 5 3 OSO 1015,5 40 18
15.01.2019 08:00:00 10,4 -5,6 5 3 O 1015,5 30 0
15.01.2019 07:00:00 10,0 -5,5 0 0 N 1014,6 30 -
15.01.2019 06:00:00 10,2 -5,3 0 0 N 1014,4 30 -
15.01.2019 05:00:00 10,6 -4,6 15 8 NNE 1013,8 30 -
15.01.2019 04:00:00 10,8 -2,9 9 5 NNE 1013,5 30 -
15.01.2019 03:00:00 11,2 -4,9 9 5 NNE 1012,8 30 -
15.01.2019 02:00:00 11,4 -3,9 15 8 NNE 1012,6 30 -
15.01.2019 01:00:00 11,4 -1,7 0 0 N 1011,4 30 -
15.01.2019 00:00:00 11,6 0,4 0 0 N 1011,3 30 -
14.01.2019 23:00:00 12,0 4,5 0 0 N 1009,8 30 -
14.01.2019 22:00:00 12,0 4,5 0 0 N 1009,7 30 -
14.01.2019 21:00:00 11,8 3,8 0 0 N 1009,6 30 -
14.01.2019 20:00:00 11,8 7,1 0 0 N 1008,8 30 -
14.01.2019 19:00:00 12,6 7,7 0 0 N 1008,2 30 -
14.01.2019 18:00:00 13,8 5,4 11 6 OSO 1007,0 30 12
14.01.2019 17:00:00 14,0 6,8 15 8 OSO 1006,2 30 60
14.01.2019 16:00:00 14,4 11,5 13 7 OSO 1005,9 30 60
14.01.2019 15:00:00 15,0 10,2 22 12 OSO 1004,9 30 60
14.01.2019 14:00:00 16,0 10,3 18 10 OSO 1004,0 30 60
14.01.2019 13:00:00 16,0 8,7 15 8 OSO 1003,3 20 60
14.01.2019 12:00:00 20,0 -1,7 28 15 NNE 1002,7 30 60
14.01.2019 11:00:00 16,0 -2,5 18 10 NNE 1003,2 30 60
14.01.2019 10:00:00 9,8 5,2 15 8 NNE 1002,8 30 60
14.01.2019 09:00:00 9,8 7,2 15 8 NNE 1001,7 30 18
14.01.2019 08:00:00 9,0 7,8 8 4 SSO 1001,4 50 -
14.01.2019 07:00:00 9,0 7,8 9 5 S 1001,5 45 -

tt = Temperatura
td = dewpoint
ff = velocità del vento
dd = direzione del vento
ppp = reduced air pressure
vv = visibility
sd = ore di luce

Stazioni seguenti

WeatherPro
AMSI
MeteoEarth